CES6368 ZSJN-ZSPD

Flight info

Callsign CES6368
Flight time 1h 16m
Altitude 29100
Route ABTUB9Z ABTUB A593 DPX A470 DALNU W166 ZJ W167 SASAN SAS82A
Aircraft A20N/M-SDE2E3FGHIRWXY/LB1

Departure

Time 2026-05-06 14:13
Airport Jinan Yaoqiang International Airport (ZSJN)

Arrival

Time 2026-05-06 15:29
Airport Shanghai Pudong International Airport (ZSPD)
Time Latitude Longitude Altitude Speed Heading
2026-05-06 14:06 36.84637 117.20902 83 ft 2 kts 47°
2026-05-06 14:06 36.84628 117.20887 83 ft 2 kts 70°
2026-05-06 14:07 36.84626 117.20869 83 ft 2 kts 94°
2026-05-06 14:07 36.84628 117.20855 83 ft 0 kts 111°
2026-05-06 14:07 36.84631 117.20847 83 ft 0 kts 115°
2026-05-06 14:08 36.84629 117.20853 83 ft 2 kts 115°
2026-05-06 14:08 36.84620 117.20877 83 ft 4 kts 114°
2026-05-06 14:09 36.84600 117.20933 83 ft 10 kts 113°
2026-05-06 14:09 36.84568 117.21036 83 ft 13 kts 96°
2026-05-06 14:09 36.84568 117.21153 83 ft 13 kts 90°
2026-05-06 14:09 36.84568 117.21274 83 ft 14 kts 90°
2026-05-06 14:10 36.84533 117.21372 83 ft 13 kts 169°
2026-05-06 14:10 36.84436 117.21374 83 ft 14 kts 179°
2026-05-06 14:10 36.84319 117.21374 83 ft 18 kts 180°
2026-05-06 14:10 36.84195 117.21375 83 ft 14 kts 180°
2026-05-06 14:11 36.84126 117.21385 83 ft 9 kts 138°
2026-05-06 14:11 36.84119 117.21471 83 ft 10 kts 90°
2026-05-06 14:11 36.84126 117.21590 83 ft 15 kts 53°
2026-05-06 14:11 36.84172 117.21597 83 ft 4 kts
2026-05-06 14:12 36.84230 117.21601 83 ft 22 kts
2026-05-06 14:12 36.84646 117.21602 84 ft 94 kts 358°
2026-05-06 14:12 36.85507 117.21597 84 ft 151 kts
2026-05-06 14:12 36.86582 117.21596 589 ft 152 kts
2026-05-06 14:13 36.87632 117.21594 1199 ft 153 kts
2026-05-06 14:13 36.88670 117.21600 1853 ft 152 kts
2026-05-06 14:13 36.89762 117.21602 2314 ft 165 kts 359°
2026-05-06 14:13 36.90980 117.21602 2701 ft 185 kts 358°
2026-05-06 14:14 36.92352 117.21600 3064 ft 208 kts 357°
2026-05-06 14:14 36.93861 117.21594 3556 ft 226 kts 357°
2026-05-06 14:14 36.95459 117.21592 4196 ft 238 kts 357°
2026-05-06 14:14 36.97127 117.21599 4954 ft 244 kts 359°
2026-05-06 14:15 36.98798 117.22127 5660 ft 259 kts 29°
2026-05-06 14:15 37.00059 117.23726 6396 ft 268 kts 62°
2026-05-06 14:15 37.00512 117.25965 7110 ft 273 kts 94°
2026-05-06 14:15 36.99960 117.28201 7829 ft 269 kts 130°
2026-05-06 14:16 36.98588 117.29668 8594 ft 260 kts 160°
2026-05-06 14:16 36.96920 117.30451 9340 ft 261 kts 165°
2026-05-06 14:16 36.95151 117.31206 9838 ft 275 kts 166°
2026-05-06 14:16 36.93298 117.31995 10314 ft 290 kts 165°
2026-05-06 14:17 36.91370 117.32824 11040 ft 294 kts 165°
2026-05-06 14:17 36.89449 117.33653 11810 ft 296 kts 165°
2026-05-06 14:17 36.87507 117.34495 12535 ft 300 kts 165°
2026-05-06 14:17 36.85506 117.35362 12997 ft 313 kts 165°
2026-05-06 14:18 36.83363 117.36223 13308 ft 329 kts 169°
2026-05-06 14:18 36.81087 117.36736 13601 ft 342 kts 177°
2026-05-06 14:18 36.78654 117.36887 13882 ft 356 kts 182°
2026-05-06 14:18 36.76114 117.36885 14236 ft 369 kts 183°
2026-05-06 14:19 36.73528 117.36866 14790 ft 374 kts 183°
2026-05-06 14:19 36.70945 117.36852 15412 ft 378 kts 183°
2026-05-06 14:19 36.68290 117.36841 16026 ft 380 kts 183°
2026-05-06 14:19 36.65654 117.36833 16595 ft 384 kts 184°
2026-05-06 14:20 36.62980 117.36824 17174 ft 387 kts 184°
2026-05-06 14:20 36.60265 117.36818 17715 ft 391 kts 184°
2026-05-06 14:20 36.57565 117.36813 18236 ft 394 kts 184°
2026-05-06 14:20 36.54791 117.36810 18771 ft 397 kts 184°
2026-05-06 14:21 36.52013 117.36808 19268 ft 401 kts 184°
2026-05-06 14:21 36.49220 117.36809 19794 ft 404 kts 185°
2026-05-06 14:21 36.46437 117.36807 20285 ft 407 kts 184°
2026-05-06 14:21 36.43568 117.36807 20759 ft 410 kts 185°
2026-05-06 14:22 36.40709 117.36807 21212 ft 414 kts 185°
2026-05-06 14:22 36.37837 117.36804 21673 ft 417 kts 185°
2026-05-06 14:22 36.34913 117.36800 22150 ft 420 kts 186°
2026-05-06 14:22 36.31996 117.36801 22574 ft 423 kts 186°
2026-05-06 14:23 36.29011 117.36800 22978 ft 427 kts 186°
2026-05-06 14:23 36.26071 117.36794 23422 ft 430 kts 186°
2026-05-06 14:23 36.23044 117.36792 23839 ft 432 kts 186°
2026-05-06 14:23 36.20031 117.36790 24215 ft 436 kts 186°
2026-05-06 14:24 36.17012 117.36784 24410 ft 438 kts 186°
2026-05-06 14:24 36.13950 117.36784 24417 ft 438 kts 186°
2026-05-06 14:24 36.10903 117.36782 24419 ft 438 kts 186°
2026-05-06 14:24 36.07853 117.36783 24421 ft 437 kts 187°
2026-05-06 14:25 36.04791 117.36784 24421 ft 437 kts 186°
2026-05-06 14:25 36.01729 117.36958 24420 ft 443 kts 181°
2026-05-06 14:25 35.98654 117.37497 24419 ft 448 kts 176°
2026-05-06 14:25 35.95609 117.38408 24419 ft 453 kts 171°
2026-05-06 14:26 35.92597 117.39511 24421 ft 453 kts 169°
2026-05-06 14:26 35.89586 117.40649 24423 ft 451 kts 169°
2026-05-06 14:26 35.86628 117.41778 24426 ft 437 kts 169°
2026-05-06 14:26 35.83746 117.42870 24426 ft 433 kts 170°
2026-05-06 14:27 35.80866 117.43948 24427 ft 434 kts 170°
2026-05-06 14:27 35.77959 117.45033 24428 ft 433 kts 170°
2026-05-06 14:27 35.75113 117.46094 24429 ft 432 kts 170°
2026-05-06 14:27 35.72225 117.47167 24428 ft 432 kts 170°
2026-05-06 14:28 35.69364 117.48231 24428 ft 432 kts 170°
2026-05-06 14:28 35.66470 117.49307 24434 ft 432 kts 170°
2026-05-06 14:28 35.63586 117.50378 24434 ft 432 kts 170°
2026-05-06 14:28 35.60712 117.51447 24434 ft 432 kts 170°
2026-05-06 14:29 35.57872 117.52501 24429 ft 431 kts 170°
2026-05-06 14:29 35.54962 117.53580 24437 ft 432 kts 170°
2026-05-06 14:29 35.52112 117.54636 24440 ft 431 kts 170°
2026-05-06 14:29 35.49217 117.55707 24440 ft 432 kts 170°
2026-05-06 14:30 35.46341 117.56772 24437 ft 431 kts 170°
2026-05-06 14:30 35.43485 117.57829 24432 ft 432 kts 170°
2026-05-06 14:30 35.40616 117.58889 24437 ft 431 kts 170°
2026-05-06 14:30 35.37746 117.59947 24437 ft 431 kts 170°
2026-05-06 14:31 35.34839 117.61020 24438 ft 431 kts 170°
2026-05-06 14:31 35.32003 117.62067 24439 ft 430 kts 170°
2026-05-06 14:31 35.29121 117.63128 24441 ft 431 kts 170°
2026-05-06 14:31 35.26257 117.64182 24442 ft 430 kts 170°
2026-05-06 14:32 35.23371 117.65245 24443 ft 431 kts 170°
2026-05-06 14:32 35.20521 117.66305 24438 ft 430 kts 170°
2026-05-06 14:32 35.17639 117.67378 24440 ft 429 kts 170°
2026-05-06 14:32 35.14788 117.68433 24439 ft 429 kts 171°
2026-05-06 14:33 35.11928 117.69482 24440 ft 430 kts 171°
2026-05-06 14:33 35.09081 117.70526 24438 ft 429 kts 170°
2026-05-06 14:33 35.06209 117.71578 24430 ft 429 kts 171°
2026-05-06 14:33 35.03336 117.72632 24432 ft 429 kts 171°
2026-05-06 14:34 35.00474 117.73682 24432 ft 429 kts 170°
2026-05-06 14:34 34.97605 117.74733 24507 ft 429 kts 171°
2026-05-06 14:34 34.94747 117.75775 24813 ft 433 kts 170°
2026-05-06 14:34 34.91844 117.76833 25215 ft 436 kts 170°
2026-05-06 14:35 34.88942 117.77891 25598 ft 438 kts 170°
2026-05-06 14:35 34.86007 117.78958 25943 ft 442 kts 170°
2026-05-06 14:35 34.83051 117.80035 26288 ft 445 kts 170°
2026-05-06 14:35 34.80088 117.81118 26617 ft 448 kts 170°
2026-05-06 14:36 34.77087 117.82203 26931 ft 451 kts 170°
2026-05-06 14:36 34.74079 117.83285 27250 ft 454 kts 170°
2026-05-06 14:36 34.71020 117.84386 27599 ft 456 kts 170°
2026-05-06 14:36 34.67997 117.85474 28006 ft 456 kts 170°
2026-05-06 14:37 34.64932 117.86576 28377 ft 457 kts 170°
2026-05-06 14:37 34.61902 117.87663 28700 ft 459 kts 170°
2026-05-06 14:37 34.58813 117.88771 28901 ft 463 kts 170°
2026-05-06 14:37 34.55709 117.89882 28911 ft 463 kts 170°
2026-05-06 14:38 34.49530 117.92095 28922 ft 464 kts 170°
2026-05-06 14:38 34.43385 117.94293 28923 ft 462 kts 170°
2026-05-06 14:39 34.37201 117.96501 28926 ft 461 kts 170°
2026-05-06 14:39 34.31022 117.98698 28927 ft 462 kts 170°
2026-05-06 14:40 34.24858 118.00909 28926 ft 462 kts 169°
2026-05-06 14:40 34.18724 118.03152 28929 ft 461 kts 169°
2026-05-06 14:41 34.12569 118.05396 28934 ft 461 kts 169°
2026-05-06 14:41 34.06452 118.07615 28936 ft 461 kts 169°
2026-05-06 14:42 34.00283 118.09851 28936 ft 461 kts 169°
2026-05-06 14:42 33.94155 118.12086 28940 ft 461 kts 169°
2026-05-06 14:43 33.88011 118.14319 28939 ft 460 kts 169°
2026-05-06 14:43 33.81974 118.16926 28945 ft 467 kts 161°
2026-05-06 14:44 33.76284 118.20825 28949 ft 476 kts 152°
2026-05-06 14:45 33.68126 118.27638 28947 ft 476 kts 150°
2026-05-06 14:45 33.62680 118.32186 28951 ft 474 kts 150°
2026-05-06 14:46 33.57254 118.36689 28951 ft 475 kts 150°
2026-05-06 14:46 33.51828 118.41180 28953 ft 476 kts 150°
2026-05-06 14:47 33.46389 118.45672 28957 ft 475 kts 150°
2026-05-06 14:47 33.40941 118.50166 28955 ft 475 kts 150°
2026-05-06 14:48 33.35497 118.54653 28963 ft 476 kts 150°
2026-05-06 14:48 33.30070 118.59119 28960 ft 475 kts 150°
2026-05-06 14:49 33.24589 118.63620 28965 ft 474 kts 150°
2026-05-06 14:49 33.19183 118.68078 28965 ft 476 kts 150°
2026-05-06 14:50 33.13765 118.72607 28968 ft 475 kts 150°
2026-05-06 14:50 33.08308 118.77142 28972 ft 476 kts 150°
2026-05-06 14:51 33.02884 118.81635 28975 ft 477 kts 150°
2026-05-06 14:51 32.97425 118.86148 28974 ft 476 kts 150°
2026-05-06 14:52 32.91985 118.90636 28973 ft 476 kts 150°
2026-05-06 14:52 32.86554 118.95100 28975 ft 476 kts 150°
2026-05-06 14:53 32.81102 118.99595 28974 ft 476 kts 150°
2026-05-06 14:53 32.75677 119.04101 28978 ft 475 kts 150°
2026-05-06 14:54 32.70284 119.08575 28978 ft 475 kts 149°
2026-05-06 14:54 32.64883 119.13048 28980 ft 474 kts 149°
2026-05-06 14:55 32.59477 119.17518 28979 ft 474 kts 150°
2026-05-06 14:55 32.54058 119.21988 28982 ft 474 kts 149°
2026-05-06 14:56 32.48640 119.26453 28981 ft 474 kts 149°
2026-05-06 14:56 32.43262 119.30878 28982 ft 473 kts 149°
2026-05-06 14:57 32.37841 119.35331 28984 ft 473 kts 149°
2026-05-06 14:57 32.32433 119.39770 28983 ft 473 kts 149°
2026-05-06 14:58 32.27034 119.44192 28984 ft 473 kts 149°
2026-05-06 14:58 32.21639 119.48605 28985 ft 472 kts 149°
2026-05-06 14:59 32.16248 119.53011 28985 ft 472 kts 149°
2026-05-06 14:59 32.10842 119.57418 28987 ft 473 kts 149°
2026-05-06 15:00 32.05423 119.61834 28988 ft 473 kts 149°
2026-05-06 15:00 32.00015 119.66237 28988 ft 473 kts 149°
2026-05-06 15:01 31.94844 119.71054 28986 ft 478 kts 139°
2026-05-06 15:01 31.92583 119.73937 28742 ft 481 kts 133°
2026-05-06 15:01 31.90593 119.77099 28387 ft 481 kts 127°
2026-05-06 15:01 31.88744 119.80315 28038 ft 478 kts 127°
2026-05-06 15:02 31.86900 119.83561 27687 ft 475 kts 127°
2026-05-06 15:02 31.85059 119.86791 27336 ft 474 kts 127°
2026-05-06 15:02 31.83230 119.89986 26987 ft 475 kts 127°
2026-05-06 15:02 31.81403 119.93167 26639 ft 471 kts 127°
2026-05-06 15:03 31.79560 119.96371 26286 ft 468 kts 127°
2026-05-06 15:03 31.77738 119.99527 25934 ft 466 kts 127°
2026-05-06 15:03 31.75933 120.02652 25586 ft 463 kts 127°
2026-05-06 15:03 31.74125 120.05781 25238 ft 461 kts 127°
2026-05-06 15:04 31.72343 120.08858 24893 ft 458 kts 127°
2026-05-06 15:04 31.70556 120.11945 24541 ft 456 kts 127°
2026-05-06 15:04 31.68790 120.14993 24199 ft 453 kts 127°
2026-05-06 15:04 31.67015 120.18055 23853 ft 450 kts 127°
2026-05-06 15:05 31.65276 120.21049 23515 ft 448 kts 127°
2026-05-06 15:05 31.63532 120.24053 23183 ft 446 kts 127°
2026-05-06 15:05 31.61778 120.27068 22846 ft 443 kts 127°
2026-05-06 15:05 31.60104 120.30108 22513 ft 443 kts 123°
2026-05-06 15:06 31.58687 120.33267 22177 ft 442 kts 117°
2026-05-06 15:06 31.57515 120.36623 21841 ft 441 kts 112°
2026-05-06 15:06 31.56517 120.39971 21509 ft 439 kts 110°
2026-05-06 15:06 31.55541 120.43352 21170 ft 436 kts 110°
2026-05-06 15:07 31.54568 120.46720 20839 ft 433 kts 110°
2026-05-06 15:07 31.53608 120.50015 20504 ft 431 kts 110°
2026-05-06 15:07 31.52633 120.53335 20171 ft 428 kts 110°
2026-05-06 15:07 31.51663 120.56626 19837 ft 426 kts 110°
2026-05-06 15:08 31.50695 120.59892 19506 ft 424 kts 110°
2026-05-06 15:08 31.49742 120.63104 19177 ft 421 kts 110°
2026-05-06 15:08 31.48775 120.66370 18832 ft 419 kts 111°
2026-05-06 15:08 31.47825 120.69577 18504 ft 417 kts 111°
2026-05-06 15:09 31.46887 120.72739 18180 ft 414 kts 111°
2026-05-06 15:09 31.45935 120.75937 17841 ft 412 kts 111°
2026-05-06 15:09 31.44998 120.79082 17510 ft 410 kts 111°
2026-05-06 15:09 31.44039 120.82217 17085 ft 408 kts 111°
2026-05-06 15:10 31.43080 120.85291 16624 ft 406 kts 111°
2026-05-06 15:10 31.42108 120.88399 16143 ft 404 kts 111°
2026-05-06 15:10 31.41150 120.91477 15678 ft 400 kts 110°
2026-05-06 15:10 31.40579 120.94589 15607 ft 394 kts 94°
2026-05-06 15:11 31.40824 120.97779 15629 ft 395 kts 75°
2026-05-06 15:11 31.41676 121.00830 15651 ft 395 kts 69°
2026-05-06 15:11 31.42635 121.03866 15644 ft 396 kts 69°
2026-05-06 15:11 31.43576 121.06861 15649 ft 396 kts 69°
2026-05-06 15:12 31.44448 121.09927 15383 ft 398 kts 76°
2026-05-06 15:12 31.44808 121.13116 14883 ft 396 kts 89°
2026-05-06 15:12 31.44623 121.16284 14449 ft 392 kts 97°
2026-05-06 15:12 31.44250 121.19422 13994 ft 388 kts 99°
2026-05-06 15:13 31.43868 121.22553 13544 ft 385 kts 98°
2026-05-06 15:13 31.43512 121.25634 13092 ft 381 kts 98°
2026-05-06 15:13 31.43172 121.28673 12646 ft 377 kts 97°
2026-05-06 15:13 31.42840 121.31693 12203 ft 374 kts 97°
2026-05-06 15:14 31.42513 121.34686 11755 ft 371 kts 97°
2026-05-06 15:14 31.42188 121.37654 11324 ft 368 kts 97°
2026-05-06 15:14 31.41863 121.40627 10880 ft 364 kts 97°
2026-05-06 15:14 31.41415 121.43503 10396 ft 360 kts 110°
2026-05-06 15:15 31.40097 121.45892 10204 ft 344 kts 138°
2026-05-06 15:15 31.38096 121.47235 10110 ft 325 kts 162°
2026-05-06 15:15 31.35962 121.47926 10059 ft 310 kts 166°
2026-05-06 15:15 31.33911 121.48537 9977 ft 297 kts 166°
2026-05-06 15:16 31.31913 121.49190 9635 ft 295 kts 164°
2026-05-06 15:16 31.29960 121.49887 9307 ft 292 kts 163°
2026-05-06 15:16 31.28043 121.50602 9045 ft 286 kts 162°
2026-05-06 15:16 31.26198 121.51302 9019 ft 271 kts 162°
2026-05-06 15:17 31.24520 121.52232 8739 ft 269 kts 139°
2026-05-06 15:17 31.23496 121.54022 8456 ft 266 kts 105°
2026-05-06 15:17 31.23406 121.56155 8163 ft 263 kts 76°
2026-05-06 15:17 31.23960 121.58154 7900 ft 259 kts 70°
2026-05-06 15:18 31.24680 121.60087 7592 ft 257 kts 53°
2026-05-06 15:18 31.26002 121.61391 7296 ft 253 kts 22°
2026-05-06 15:18 31.27702 121.61760 7009 ft 248 kts 353°
2026-05-06 15:18 31.29353 121.61263 6750 ft 243 kts 339°
2026-05-06 15:19 31.30951 121.60606 6495 ft 240 kts 339°
2026-05-06 15:19 31.32522 121.59970 6244 ft 238 kts 340°
2026-05-06 15:19 31.34082 121.59355 5995 ft 235 kts 340°
2026-05-06 15:19 31.35626 121.58759 5745 ft 232 kts 340°
2026-05-06 15:20 31.37143 121.58178 5512 ft 228 kts 341°
2026-05-06 15:20 31.38672 121.57966 5431 ft 220 kts 12°
2026-05-06 15:20 31.40023 121.58765 5357 ft 220 kts 46°
2026-05-06 15:20 31.40789 121.60262 5096 ft 215 kts 77°
2026-05-06 15:21 31.41086 121.61969 4891 ft 217 kts 81°
2026-05-06 15:21 31.41362 121.63716 4652 ft 217 kts 81°
2026-05-06 15:21 31.41653 121.65441 4421 ft 216 kts 81°
2026-05-06 15:21 31.41706 121.67121 4237 ft 203 kts 107°
2026-05-06 15:22 31.40953 121.68412 4003 ft 188 kts 145°
2026-05-06 15:22 31.39841 121.69107 3814 ft 177 kts 159°
2026-05-06 15:22 31.38714 121.69583 3657 ft 166 kts 163°
2026-05-06 15:22 31.37649 121.69990 3516 ft 154 kts 163°
2026-05-06 15:23 31.36666 121.70358 3416 ft 147 kts 164°
2026-05-06 15:23 31.35676 121.70726 3350 ft 146 kts 163°
2026-05-06 15:23 31.34737 121.71077 3244 ft 138 kts 164°
2026-05-06 15:23 31.33820 121.71420 3272 ft 138 kts 164°
2026-05-06 15:24 31.32891 121.71767 3299 ft 138 kts 164°
2026-05-06 15:24 31.31984 121.72108 3310 ft 138 kts 163°
2026-05-06 15:24 31.31064 121.72454 3159 ft 138 kts 163°
2026-05-06 15:24 31.30144 121.72800 2976 ft 137 kts 163°
2026-05-06 15:25 31.29240 121.73141 2799 ft 137 kts 163°
2026-05-06 15:25 31.28327 121.73485 2615 ft 136 kts 163°
2026-05-06 15:25 31.27432 121.73822 2435 ft 136 kts 163°
2026-05-06 15:25 31.26517 121.74167 2253 ft 136 kts 162°
2026-05-06 15:26 31.25614 121.74508 2076 ft 135 kts 162°
2026-05-06 15:26 31.24717 121.74846 1895 ft 135 kts 162°
2026-05-06 15:26 31.23831 121.75181 1721 ft 135 kts 162°
2026-05-06 15:26 31.22925 121.75523 1537 ft 134 kts 162°
2026-05-06 15:27 31.22036 121.75858 1362 ft 134 kts 162°
2026-05-06 15:27 31.21157 121.76190 1187 ft 133 kts 162°
2026-05-06 15:27 31.20272 121.76524 1013 ft 133 kts 161°
2026-05-06 15:27 31.19383 121.76859 838 ft 133 kts 161°
2026-05-06 15:28 31.18512 121.77191 663 ft 132 kts 161°
2026-05-06 15:28 31.17632 121.77517 476 ft 132 kts 162°
2026-05-06 15:28 31.16758 121.77846 310 ft 131 kts 160°
2026-05-06 15:28 31.15892 121.78173 138 ft 129 kts 160°
2026-05-06 15:29 31.15053 121.78492 26 ft 120 kts 160°
2026-05-06 15:29 31.14402 121.78740 23 ft 74 kts 162°
2026-05-06 15:29 31.14040 121.78877 25 ft 43 kts 162°
2026-05-06 15:29 31.13782 121.78975 25 ft 28 kts 162°
2026-05-06 15:30 31.13632 121.79041 25 ft 20 kts 150°
2026-05-06 15:30 31.13538 121.79120 25 ft 12 kts 139°
2026-05-06 15:30 31.13476 121.79191 24 ft 13 kts 135°
2026-05-06 15:30 31.13407 121.79272 23 ft 14 kts 134°
2026-05-06 15:31 31.13348 121.79343 22 ft 8 kts 137°
2026-05-06 15:31 31.13311 121.79379 22 ft 6 kts 105°
2026-05-06 15:31 31.13323 121.79436 22 ft 7 kts 72°
2026-05-06 15:32 31.13361 121.79574 21 ft 10 kts 72°
2026-05-06 15:32 31.13387 121.79665 22 ft 12 kts 72°
2026-05-06 15:32 31.13415 121.79766 22 ft 9 kts 72°
2026-05-06 15:32 31.13452 121.79824 22 ft 9 kts
2026-05-06 15:33 31.13522 121.79800 22 ft 11 kts 342°
2026-05-06 15:33 31.13608 121.79768 22 ft 14 kts 342°
2026-05-06 15:33 31.13716 121.79727 22 ft 17 kts 342°
2026-05-06 15:33 31.13834 121.79683 22 ft 18 kts 342°
2026-05-06 15:34 31.13957 121.79637 22 ft 18 kts 342°
2026-05-06 15:34 31.14053 121.79600 23 ft 8 kts 342°
2026-05-06 15:34 31.14111 121.79592 24 ft 8 kts 28°
2026-05-06 15:34 31.14128 121.79657 24 ft 9 kts 84°
2026-05-06 15:35 31.14137 121.79736 24 ft 10 kts 72°
2026-05-06 15:35 31.14159 121.79815 25 ft 10 kts 72°
2026-05-06 15:35 31.14183 121.79900 25 ft 11 kts 71°
2026-05-06 15:35 31.14209 121.79991 25 ft 12 kts 72°
2026-05-06 15:36 31.14236 121.80089 25 ft 13 kts 72°
2026-05-06 15:36 31.14265 121.80193 24 ft 14 kts 72°
2026-05-06 15:36 31.14292 121.80289 24 ft 6 kts 72°
2026-05-06 15:36 31.14289 121.80344 23 ft 8 kts 142°
2026-05-06 15:37 31.14224 121.80370 22 ft 10 kts 162°
2026-05-06 15:37 31.14147 121.80399 22 ft 12 kts 163°
2026-05-06 15:37 31.14078 121.80424 22 ft 7 kts 161°
2026-05-06 15:37 31.14043 121.80412 22 ft 6 kts 240°
2026-05-06 15:38 31.14027 121.80363 22 ft 3 kts 252°
2026-05-06 15:38 31.14018 121.80334 22 ft 4 kts 251°
2026-05-06 15:38 31.14008 121.80296 22 ft 5 kts 252°
2026-05-06 15:38 31.14002 121.80276 22 ft 0 kts 252°